Weather Service Report


438 
ASUS46 KSEW 011510
RWRWA 

WASHINGTON REGIONAL WEATHER ROUNDUP
NATIONAL WEATHER SERVICE SEATTLE WA
800 AM PDT FRI AUG 01 2014

NOTE:"FAIR" INDICATES FEW OR NO CLOUDS BELOW 12,000 FEET WITH NO 
SIGNIFICANT WEATHER AND/OR OBSTRUCTIONS TO VISIBILITY.

WAZ505-507>509-011600-
SEATTLE, TACOMA, EVERETT, AND VICINITY
  
CITY           SKY/WX    TMP DP  RH WIND       PRES   REMARKS
EVERETT        PTSUNNY   65  50  58 CALM      30.09R                  
BOEING FIELD   PTSUNNY   67  52  58 W3        30.06S                  
RENTON         PTSUNNY   64  54  69 CALM      30.06S                  
SEATAC AIRPORT PTSUNNY   67  51  56 NE7       30.07F                  
JBLM-MCCHORD   CLOUDY    64  54  71 NE3       30.07R                  
PUYALLUP       FAIR      63  59  88 CALM      30.07S                  
JBLM-FT LEWIS  CLOUDY    64  53  66 CALM      30.06R                  
TACOMA NARROWS CLOUDY    65  51  60 CALM      30.07S                  
$$
 
WAZ001-503-506-510-514-515-011600-
NORTH INTERIOR
  
CITY           SKY/WX    TMP DP  RH WIND       PRES   REMARKS
BELLINGHAM     MOSUNNY   63  57  81 S5        30.05R                  
FRIDAY HARBOR  MOSUNNY   58  52  80 E5        30.08R                  
EASTSOUND      MOSUNNY   66  59  77 CALM      30.04S                  
PORT ANGELES   PTSUNNY   59  52  77 NW3       30.07R                  
NAS WHIDBEY    PTSUNNY   58  53  84 SW5       30.08R                  
BURLINGTON     SUNNY     57  54  88 S5        30.08R                  
$$
 
WAZ020-022-039-040-504-511-512-011600-
SOUTHWEST INTERIOR
  
CITY           SKY/WX    TMP DP  RH WIND       PRES   REMARKS
SHELTON        CLOUDY    57  52  83 SW5       30.04F                  
OLYMPIA        CLOUDY    60  53  77 SE6       30.07R                  
CHEHALIS       FAIR      61  57  88 CALM      30.06S                  
KELSO          CLOUDY    63  54  72 CALM      30.06R                  
VANCOUVER      CLOUDY    67  53  61 N5        30.01S                  
SCAPPOOSE, OR  CLOUDY    64  59  83 CALM      30.03R                  
PORTLAND, OR   CLOUDY    67  54  63 N5        30.01F                  
$$
 
WAZ021-516-517-011600-
WASHINGTON COAST
  
CITY           SKY/WX    TMP DP  RH WIND       PRES   REMARKS
FORKS          FOG       52  52 100 E3        30.08R VSB 3/4          
HOQUIAM        CLOUDY    55  54  96 CALM      30.07S FOG              
ASTORIA, OR    CLOUDY    60  56  86 NW12      30.05R                  
$$
 
WAZ019-023-024-040-518-519-011600-
CASCADE MOUNTAINS AND COLUMBIA GORGE
  
CITY           SKY/WX    TMP DP  RH WIND       PRES   REMARKS
STAMPEDE PASS  NOT AVBL                                               
TROUTDALE, OR  CLOUDY    67  58  72 N3        29.99S                  
THE DALLES, OR CLOUDY    76  58  53 N6        29.94S                  
$$

WAZ026-027-041>044-520-521-011600-
EAST SLOPES
  
CITY           SKY/WX    TMP DP  RH WIND       PRES   REMARKS
OMAK           CLOUDY    75  42  30 N13       30.01R                  
WENATCHEE      PTSUNNY   74  50  42 W7        30.00R                  
ELLENSBURG     PTSUNNY   71  55  56 E5        30.03R                  
YAKIMA         PTSUNNY   71  54  54 W7        29.98S                  
$$

WAZ028-034-035-011600-
COLUMBIA BASIN
  
CITY           SKY/WX    TMP DP  RH WIND       PRES   REMARKS
EPHRATA        PTSUNNY   79  39  23 NE8       29.98R                  
MOSES LAKE     CLOUDY    70  41  34 N3        29.99R                  
PASCO          PTSUNNY   76  57  51 E5        29.94R                  
HERMISTON, OR  MOSUNNY   80  51  36 CALM      29.95R                  
$$

WAZ036>038-011600-
NORTHEAST WASHINGTON
  
CITY           SKY/WX    TMP DP  RH WIND       PRES   REMARKS
SPOKANE GEIGER CLOUDY    71  49  45 E7        30.06R                  
SPOKANE FELTS  PTSUNNY   69  48  47 CALM      30.05R                  
FAIRCHILD AFB  CLOUDY    69  46  42 NE7       30.06R                  
COEURDALENE,ID PTSUNNY   70  52  52 E9        30.06S                  
DEER PARK      PTSUNNY   67  46  47 NW3       30.06R                  
$$

WAZ029>033-011600-
SOUTHEAST WASHINGTON
  
CITY           SKY/WX    TMP DP  RH WIND       PRES   REMARKS
PULLMAN        PTSUNNY   76  45  33 MISG      30.07R                  
LEWISTON, ID   PTSUNNY  N/A N/A N/A E5        30.01R                  
WALLA WALLA    MOSUNNY   86  46  24 SW6       29.98R                  
PENDLETON, OR  MOSUNNY   78  49  35 SE5       29.99R                  
$$

Return to Home page


Western Regional Climate Center, wrcc@dri.edu